Location: Caltech
(34.1382°N, 118.1253°W)
Time: 09:25:16
(UTC-08:00)

Uosat F - Visible Passes

Search period start: 17 November 2017 00:00
Search period end: 27 November 2017 00:00
Orbit: 751 x 761 km, 98.7° (Epoch: 17 November)

Date Brightness Start Highest point End Pass type
(mag) Time Alt. Az. Time Alt. Az. Time Alt. Az.
17 Nov 14.2 05:57:16 10° ENE 05:59:59 15° E 06:02:41 10° SE visible
17 Nov 12.6 17:07:15 10° E 17:10:01 15° ENE 17:12:47 10° NNE visible
17 Nov 11.7 18:43:19 10° S 18:48:16 55° W 18:53:14 10° NNW visible
18 Nov 11.1 18:03:53 10° SSE 18:08:48 57° ENE 18:13:46 10° N visible
18 Nov 14.0 19:45:32 10° WSW 19:47:51 13° W 19:50:11 10° WNW visible
19 Nov 12.1 17:25:41 10° ESE 17:29:34 23° ENE 17:33:29 10° NNE visible
19 Nov 12.6 19:03:32 10° SSW 19:08:05 34° W 19:12:40 10° NNW visible
20 Nov 11.0 18:23:29 10° SSE 18:28:32 89° WNW 18:33:36 10° NNW visible
21 Nov 11.6 17:44:38 10° SE 17:49:10 35° ENE 17:53:45 10° N visible
21 Nov 13.4 19:24:08 10° SW 19:27:57 22° W 19:31:49 10° NW visible
22 Nov 14.2 05:57:22 10° ENE 06:00:01 14° E 06:02:38 10° SE visible
22 Nov 12.6 17:07:22 10° E 17:10:03 15° ENE 17:12:46 10° NNE visible
22 Nov 11.7 18:43:22 10° S 18:48:18 56° W 18:53:16 10° NNW visible
23 Nov 11.1 18:03:56 10° SSE 18:08:51 56° ENE 18:13:47 10° N visible
23 Nov 14.0 19:45:29 10° WSW 19:47:53 13° W 19:50:17 10° WNW visible
24 Nov 12.1 17:25:45 10° ESE 17:29:37 23° ENE 17:33:29 10° NNE visible
24 Nov 12.6 19:03:33 10° SSW 19:08:07 35° W 19:12:43 10° NNW visible
25 Nov 11.0 18:23:31 10° SSE 18:28:34 89° ENE 18:33:38 10° NNW visible
26 Nov 11.6 17:44:41 10° SE 17:49:14 35° ENE 17:53:46 10° N visible
26 Nov 13.4 19:24:08 10° SW 19:27:59 22° W 19:31:52 10° NW visible
